JAS-2 (FO-29)

Last updated on Fri Dec 19 2025 00:03:11 GMT+0000 (Coordinated Universal Time)

1 24278U 96046B 25352.61402753 -.00000035 00000+0 13961-5 0 9996 2 24278 98.5459 220.9609 0349412 204.7150 153.6895 13.53262934448747
UTC large
Height (km)
Speed (km/s)
/
Latitude / Longitude
Inclination (degrees)
Orbital Period (minutes)
Azimuth
Elevation
Range (km)
Doppler Factor

Next 0 passes for location: London (51.5072 / 0.1276)

Sorry there are no passes over London.